Location: Arroyo de Valdeoliva
(40.1604°N, 4.9878°W)
Time: 20:21:18
(UTC+00:00)

SPOT 1/Viking Rocket - Pass Details

Date: 07 March 2026
Orbit: 773 x 788 km, 98.2° (Epoch: 11 April)

Event Time Altitude Azimuth Distance (km) Brightness Sun altitude
Rises 19:23:23 0° 199° (SSW) 3,241 6.9 -13.3°
Reaches altitude 10° 19:26:07 10° 214° (SW) 2,321 6.4 -13.8°
Maximum altitude 19:30:10 23° 266° (W) 1,596 6.1 -14.6°
Drops below altitude 10° 19:34:15 10° 319° (NW) 2,342 6.7 -15.3°
Sets 19:37:03 0° 333° (NNW) 3,278 7.3 -15.9°
